DW8500 Weather Reports


Display with metric or nautical units.
time (UTC)temp
F
wind
direction
speed
MPH
gust
MPH
rain 1hr
in
rain 24hr
in
rain mn
in
humidity
%
barometer
mb
20260505015303 61 234 1.0 7.0 0.00 0.00 0.00 36 1009.2
20260505014800 61 158 2.0 6.0 0.00 0.00 0.00 36 1009.4
20260505013756 62 253 1.0 2.0 0.00 0.00 0.00 35 1009.3
20260505013248 62 285 0.0 3.0 0.00 0.00 0.00 35 1009.1
20260505012744 63 188 0.0 5.0 0.00 0.00 0.00 34 1009.1
20260505011759 63 98 2.0 9.0 0.00 0.00 0.00 33 1008.9
20260505011252 63 229 2.0 9.0 0.00 0.00 0.00 33 1008.7
20260505010752 63 223 2.0 7.0 0.00 0.00 0.00 32 1008.7
20260505010304 63 93 1.0 9.0 0.00 0.00 0.00 32 1008.6
20260505005744 63 174 2.0 9.0 0.00 0.00 0.00 32 1008.5
20260505005256 63 267 2.0 6.0 0.00 0.00 0.00 31 1008.5
20260505004757 63 211 0.0 1.0 0.00 0.00 0.00 31 1008.3
20260505004250 63 211 0.0 2.0 0.00 0.00 0.00 29 1008.1
20260505003740 64 227 0.0 2.0 0.00 0.00 0.00 30 1008.0
20260505003259 64 293 0.0 2.0 0.00 0.00 0.00 29 1008.0
20260505002756 64 270 0.0 2.0 0.00 0.00 0.00 29 1007.8
20260505002310 64 232 1.0 2.0 0.00 0.00 0.00 28 1007.7
20260505001750 65 259 0.0 2.0 0.00 0.00 0.00 28 1007.7
20260505001258 65 290 0.0 3.0 0.00 0.00 0.00 27 1007.6
20260505000756 65 300 0.0 3.0 0.00 0.00 0.00 27 1007.6
20260505000311 65 246 0.0 3.0 0.00 0.00 0.00 27 1007.4
20260505000007 65 223 0.0 4.0 0.00 0.00 0.00 27 1007.4
20260504235806 66 146 1.0 4.0 0.00 0.00 0.00 27 1007.3
20260504235300 66 304 1.0 4.0 0.00 0.00 0.00 27 1007.3
20260504234759 66 250 1.0 4.0 0.00 0.00 0.00 26 1007.2
20260504234243 67 158 0.0 7.0 0.00 0.00 0.00 26 1007.1
20260504233804 67 257 2.0 7.0 0.00 0.00 0.00 25 1007.0
20260504233257 67 204 0.0 6.0 0.00 0.00 0.00 25 1007.1
20260504233018 67 253 1.0 6.0 0.00 0.00 0.00 25 1007.1
20260504232818 68 243 2.0 6.0 0.00 0.00 0.00 24 1007.0
20260504232253 68 269 2.0 6.0 0.00 0.00 0.00 24 1006.8
20260504231753 68 211 1.0 3.0 0.00 0.00 0.00 23 1006.9
20260504231244 68 271 1.0 9.0 0.00 0.00 0.00 24 1006.7
20260504230805 69 139 2.0 9.0 0.00 0.00 0.00 24 1006.7
20260504230255 69 236 3.0 10.0 0.00 0.00 0.00 22 1006.6
20260504225754 69 214 3.0 9.0 0.00 0.00 0.00 22 1006.6
20260504225251 69 243 2.0 8.0 0.00 0.00 0.00 21 1006.5
20260504224749 70 214 3.0 8.0 0.00 0.00 0.00 21 1006.4
20260504224247 70 108 2.0 9.0 0.00 0.00 0.00 21 1006.3
20260504223808 70 359 4.0 9.0 0.00 0.00 0.00 21 1006.3
20260504223324 70 184 2.0 8.0 0.00 0.00 0.00 21 1006.1
20260504222756 70 285 2.0 10.0 0.00 0.00 0.00 20 1006.3
20260504222251 70 318 3.0 12.0 0.00 0.00 0.00 20 1006.2
20260504221751 71 121 4.0 12.0 0.00 0.00 0.00 20 1006.2
20260504221249 71 44 2.0 12.0 0.00 0.00 0.00 20 1006.3
20260504220750 72 293 1.0 7.0 0.00 0.00 0.00 20 1006.3
20260504220246 71 295 3.0 8.0 0.00 0.00 0.00 20 1006.4
20260504215745 72 262 4.0 8.0 0.00 0.00 0.00 19 1006.3
20260504215244 72 314 2.0 8.0 0.00 0.00 0.00 19 1006.4
20260504214745 71 236 3.0 11.0 0.00 0.00 0.00 20 1006.3
20260504214503 71 32 3.0 11.0 0.00 0.00 0.00 20 1006.4
20260504214302 71 267 3.0 11.0 0.00 0.00 0.00 20 1006.4
20260504213802 71 275 4.0 10.0 0.00 0.00 0.00 19 1006.3
20260504213257 72 55 3.0 8.0 0.00 0.00 0.00 19 1006.2
20260504213013 71 144 2.0 13.0 0.00 0.00 0.00 20 1006.4
20260504212811 71 150 4.0 13.0 0.00 0.00 0.00 19 1006.2
20260504212248 72 279 3.0 15.0 0.00 0.00 0.00 20 1006.3
20260504211748 71 310 4.0 15.0 0.00 0.00 0.00 19 1006.3
20260504211506 71 264 5.0 15.0 0.00 0.00 0.00 19 1006.4
20260504211305 72 219 4.0 11.0 0.00 0.00 0.00 19 1006.2
20260504210745 72 168 5.0 13.0 0.00 0.00 0.00 20 1006.3
20260504210325 71 249 3.0 13.0 0.00 0.00 0.00 20 1006.2
20260504210002 70 264 4.0 11.0 0.00 0.00 0.00 20 1006.3
20260504205802 71 265 2.0 11.0 0.00 0.00 0.00 20 1006.3
20260504205317 71 352 5.0 11.0 0.00 0.00 0.00 19 1006.2
20260504204752 71 69 3.0 12.0 0.00 0.00 0.00 19 1006.2
20260504204249 72 257 5.0 13.0 0.00 0.00 0.00 20 1006.2
20260504203809 72 312 5.0 13.0 0.00 0.00 0.00 18 1006.2
20260504203246 72 143 4.0 10.0 0.00 0.00 0.00 20 1006.3
20260504202746 71 345 2.0 9.0 0.00 0.00 0.00 21 1006.2
20260504202243 71 192 4.0 15.0 0.00 0.00 0.00 19 1006.3
20260504201807 71 243 3.0 15.0 0.00 0.00 0.00 19 1006.3
20260504201244 72 255 4.0 11.0 0.00 0.00 0.00 18 1006.4
20260504200804 72 107 3.0 7.0 0.00 0.00 0.00 20 1006.4
20260504200258 72 315 2.0 9.0 0.00 0.00 0.00 19 1006.3
20260504195756 72 238 3.0 9.0 0.00 0.00 0.00 21 1006.4
20260504195252 72 124 3.0 8.0 0.00 0.00 0.00 19 1006.2
20260504194750 72 253 3.0 13.0 0.00 0.00 0.00 20 1006.4
20260504194248 72 259 5.0 13.0 0.00 0.00 0.00 18 1006.3
20260504193748 72 114 4.0 12.0 0.00 0.00 0.00 18 1006.2
20260504193246 72 270 5.0 12.0 0.00 0.00 0.00 21 1006.4
20260504192745 72 279 5.0 12.0 0.00 0.00 0.00 18 1006.3
20260504192304 72 1 3.0 11.0 0.00 0.00 0.00 18 1006.3
20260504191743 72 218 3.0 18.0 0.00 0.00 0.00 19 1006.3
20260504191257 72 297 4.0 18.0 0.00 0.00 0.00 18 1006.3
20260504190756 72 230 4.0 12.0 0.00 0.00 0.00 19 1006.5
20260504190248 72 274 3.0 18.0 0.00 0.00 0.00 18 1006.5
20260504185748 72 155 8.0 18.0 0.00 0.00 0.00 17 1006.5
20260504185244 72 84 4.0 18.0 0.00 0.00 0.00 18 1006.3
20260504184745 72 243 4.0 14.0 0.00 0.00 0.00 17 1006.5
20260504184243 72 231 2.0 14.0 0.00 0.00 0.00 18 1006.4
20260504183754 72 351 3.0 11.0 0.00 0.00 0.00 18 1006.5
20260504183312 71 297 4.0 11.0 0.00 0.00 0.00 18 1006.6
20260504183013 71 226 3.0 12.0 0.00 0.00 0.00 19 1006.7
20260504182811 71 274 3.0 12.0 0.00 0.00 0.00 18 1006.5
20260504182248 71 144 2.0 14.0 0.00 0.00 0.00 19 1006.6
20260504181804 71 271 6.0 14.0 0.00 0.00 0.00 18 1006.9
20260504181257 71 335 5.0 15.0 0.00 0.00 0.00 18 1006.4
20260504180757 71 286 6.0 15.0 0.00 0.00 0.00 18 1006.6
20260504180252 70 273 2.0 12.0 0.00 0.00 0.00 20 1006.9
20260504175754 70 96 5.0 12.0 0.00 0.00 0.00 17 1006.8
20260504175311 70 244 5.0 14.0 0.00 0.00 0.00 17 1006.7
20260504174752 70 240 4.0 14.0 0.00 0.00 0.00 17 1006.9
20260504174250 70 244 4.0 17.0 0.00 0.00 0.00 17 1006.8
20260504173748 70 278 5.0 17.0 0.00 0.00 0.00 18 1006.9
20260504173246 69 235 3.0 13.0 0.00 0.00 0.00 18 1006.9
20260504172747 69 231 5.0 12.0 0.00 0.00 0.00 18 1007.0
20260504172320 69 102 5.0 12.0 0.00 0.00 0.00 19 1007.0
20260504171758 69 196 5.0 12.0 0.00 0.00 0.00 20 1007.2
20260504171254 69 224 4.0 10.0 0.00 0.00 0.00 19 1007.4
20260504170755 69 286 4.0 17.0 0.00 0.00 0.00 21 1007.2
20260504170253 68 240 6.0 17.0 0.00 0.00 0.00 20 1007.4
20260504160243 66 158 4.0 14.0 0.00 0.00 0.00 22 1007.7
20260504150742 65 226 4.0 13.0 0.00 0.00 0.00 24 1008.3
20260504150253 64 254 5.0 13.0 0.00 0.00 0.00 24 1008.3
20260504141251 61 311 2.0 10.0 0.00 0.00 0.00 29 1009.0
20260504140752 61 253 2.0 6.0 0.00 0.00 0.00 30 1009.2
20260504140249 61 302 2.0 8.0 0.00 0.00 0.00 29 1009.1
20260504130802 55 248 2.0 9.0 0.00 0.02 0.00 37 1009.4
20260504130256 54 312 2.0 7.0 0.00 0.02 0.00 37 1009.6
20260504120247 52 51 2.0 8.0 0.00 0.02 0.00 40 1009.7
20260504110304 44 184 0.0 0.0 0.00 0.02 0.00 56 1009.7
20260504100314 46 177 0.0 2.0 0.00 0.02 0.00 47 1009.7
20260504081753 45 305 1.0 4.0 0.00 0.02 0.00 46 1009.9
20260504081250 45 200 0.0 3.0 0.00 0.02 0.00 47 1009.8
20260504080807 45 274 0.0 1.0 0.00 0.02 0.00 46 1009.8
20260504080243 45 281 0.0 1.0 0.00 0.02 0.00 44 1009.8
20260504070321 45 250 0.0 1.0 0.00 0.02 0.00 42 1009.8
20260504060239 42 282 0.0 1.0 0.00 0.02 0.00 47 1009.9
20260504050748 40 238 1.0 3.0 0.00 0.02 0.00 55 1009.9
20260504050300 39 115 0.0 4.0 0.00 0.02 0.00 55 1010.0
20260504045758 39 180 0.0 4.0 0.00 0.02 0.00 54 1010.0
20260504045253 39 264 0.0 5.0 0.00 0.02 0.00 55 1010.0
20260504044753 39 247 0.0 5.0 0.00 0.02 0.00 54 1010.0
20260504044247 38 330 1.0 2.0 0.00 0.02 0.00 56 1010.1
20260504043747 37 250 0.0 1.0 0.00 0.02 0.00 58 1010.0
20260504043245 37 256 0.0 1.0 0.00 0.02 0.00 58 1010.1
20260504043009 37 245 0.0 1.0 0.00 0.02 0.00 57 1010.4
20260504042808 38 246 0.0 1.0 0.00 0.02 0.00 58 1010.0
20260504042243 38 245 1.0 1.0 0.00 0.02 0.00 57 1010.0
20260504041741 38 251 0.0 1.0 0.00 0.02 0.00 56 1010.0
20260504041254 38 244 0.0 2.0 0.00 0.02 0.00 55 1009.9
20260504040755 38 231 0.0 2.0 0.00 0.02 0.00 55 1009.8
20260504040310 37 248 0.0 1.0 0.00 0.02 0.00 56 1009.8
20260504040029 37 245 0.0 1.0 0.00 0.02 0.02 56 1010.2
20260504035810 38 250 0.0 1.0 0.00 0.02 0.02 56 1009.9
20260504035246 38 250 0.0 1.0 0.00 0.02 0.02 57 1009.9
20260504034748 38 251 0.0 1.0 0.00 0.02 0.02 54 1009.8
20260504034507 38 251 0.0 1.0 0.00 0.02 0.02 54 1010.3
20260504034306 38 251 0.0 1.0 0.00 0.02 0.02 54 1009.7
20260504033746 38 251 0.0 1.0 0.00 0.02 0.02 55 1009.8
20260504033243 39 251 0.0 1.0 0.00 0.02 0.02 53 1009.8
20260504032744 39 251 0.0 1.0 0.00 0.02 0.02 52 1009.9
20260504032256 39 251 0.0 1.0 0.00 0.02 0.02 51 1009.8
20260504031754 39 251 0.0 1.0 0.00 0.02 0.02 52 1009.8
20260504031514 39 251 0.0 1.0 0.00 0.02 0.02 52 1010.2
20260504031311 39 256 0.0 1.0 0.00 0.02 0.02 52 1009.8
20260504030830 39 108 0.0 1.0 0.00 0.02 0.02 52 1009.8
20260504030242 40 259 0.0 1.0 0.00 0.02 0.02 55 1009.9
20260504030003 39 259 0.0 1.0 0.00 0.02 0.02 54 1010.2
20260504025802 40 273 0.0 1.0 0.00 0.02 0.02 51 1009.9
20260504024752 41 296 0.0 2.0 0.00 0.02 0.02 48 1009.8
20260504024508 41 297 0.0 2.0 0.00 0.02 0.02 47 1010.2
20260504024308 41 297 0.0 2.0 0.00 0.02 0.02 47 1009.8
20260504023808 41 270 0.0 1.0 0.00 0.02 0.02 46 1009.8
20260504023246 41 258 0.0 0.0 0.00 0.02 0.02 46 1009.7
20260504022745 41 258 0.0 0.0 0.00 0.02 0.02 47 1009.6
20260504022243 41 258 0.0 0.0 0.00 0.02 0.02 48 1009.7
20260504021743 41 263 0.0 0.0 0.00 0.02 0.02 48 1009.7
20260504021240 41 248 0.0 0.0 0.00 0.02 0.02 49 1009.7
20260504020743 41 245 0.0 0.0 0.00 0.02 0.02 48 1009.7
20260504020316 41 249 0.0 0.0 0.00 0.02 0.02 49 1009.7
20260504015755 41 259 0.0 0.0 0.00 0.02 0.02 48 1009.7